Other Surface Observations
Issued by NWS

Home | Current Version | Previous Version | Text Only | Print | Product List | Glossary On
Versions: 1 2 3 4 5 6 7 8 9 10 11 12 13 14 15 16 17 18 19 20 21 22 23 24 25 26 27 28 29 30 31 32 33 34 35 36 37 38 39 40 41 42 43 44 45 46 47 48 49 50
296
SXUS52 KTAE 310718
OSOTAE
OSOTAE
North Florida/South Alabama/Southwest Georgia Weather Roundup
National Weather Service Tallahassee Florida
300 AM EDT SUN JUL 31 2016

Note: "fair" indicates few or no clouds below 12,000 feet with no
significant weather and/or obstructions to visibility.

!FLZ017-115-028-034-025-310800
...North Florida...

CITY           SKY/WX    TMP DP  RH WIND       PRES   REMARKS
TALLAHASSEE    CLEAR     79  76  90 CALM      30.02S
APALACHICOLA   MOCLDY    79  78  97 CALM      30.01S
PERRY          PTCLDY    78  76  93 CALM      30.02F
CROSS CITY       N/A     77  74  90 CALM      30.02F
JACKSONVILLE   PTCLDY    78  75  90 SW6       30.03S
$$

!FLZ112-006-005-002-011-310800
...Florida Panhandle...

CITY           SKY/WX    TMP DP  RH WIND       PRES   REMARKS
MARIANNA       CLEAR     77  76  96 CALM      30.02F
BONIFAY        FAIR      75  74  96 CALM      30.03S
PANAMA CITY NW FAIR      78  76  93 NE3       30.01S
TYNDALL AFB    PTCLDY    84  75  75 W5        30.02S HX  92
TYND DRONE APT NOT AVBL
DE FUNIAK SPR  FAIR      75  75  99 CALM      30.03S
EGLIN AFB      PTCLDY    79  75  87 NE1       30.02R
DESTIN         PTCLDY    85  79  82 N3        30.02R HX  98
HURLBURT       PTCLDY    78  75  89 CALM      30.00S
CRESTVIEW      CLEAR     76  74  93 CALM      30.03F
PENSACOLA      CLEAR     81  76  84 W6        30.01F
$$

!ALZ063-066-310800
...South Alabama...

CITY           SKY/WX    TMP DP  RH WIND       PRES   REMARKS
DOTHAN         CLEAR     77  75  93 SW3       30.06F
OZARK CAIRNS   CLEAR     76  76 100 SE2       30.02F
FT RUCKER HELI CLEAR     76  74  93 CALM      30.01F
RUCKER HELI 3  FAIR      77  75  96 CALM      30.04S
RUCKER HELI 2  FAIR      77  75  93 CALM      30.02F
FLORALA APT    CLEAR     76  74  93 CALM      30.04S
ANDALUSIA      PTCLDY    79  75  87 CALM      30.02F
TROY           PTCLDY    74  74 100 S3        30.02F
EUFALA         FAIR      73  71  93 S3        30.01F
MOBILE         CLEAR     76  75  97 CALM      30.02F
$$

!GAZ120>161-310800
...Southwest and South Central Georgia...

CITY           SKY/WX    TMP DP  RH WIND       PRES   REMARKS
THOMASVILLE      N/A     77  77 100 CALM      30.04S
BAINBRIDGE     CLOUDY    79  73  83 CALM      30.03F
MOODY AFB      PTCLDY    77  73  87 S3        30.03S
VALDOSTA       PTCLDY    76  74  93 CALM      30.03S
MOULTRIE       PTCLDY    77  73  88 CALM      30.04S
BLAKELY        CLEAR     77  72  83 CALM      30.04S
ALBANY         PTCLDY    78  73  84 SW3       30.04F
TIFTON         FAIR      78  74  88 S3        30.03F
FITZGERALD     FAIR      77  77 100 CALM      30.06S
CORDELE        CLOUDY    81  75  81 CALM      30.04S
AMERICUS       CLOUDY    75  75 100 CALM      30.05S
HOMERVILLE     FAIR      79  75  89 CALM      30.03F
$$

!GMZ750-755-770-775-310800
...Coastal and Buoy Obs...

STATION/POSITION TIME  TEMP    WIND        PRES    VSBY  WAVE
                       AIR SEA DIR/SP/G                  HT/PER
                 (UTC) (F)     (DEG/KT/KT) (MB)    (MI)  (FT/S)
KEATON BEACH     0700   86     260/  6/  8 1016.1F
CEDAR KEY        0700   85     240/  2/  3 1016.7F
C TOWER          0700   85     280/  8/ 10 1016.9F
APALACHICOLA BUO 0650   86 89  210/  4/  4 1016.6F         1
PANAMA CITY BUOY 0650   85 87  250/  6/  8 1016.7F         1
MOBILE BUOY      0700   85 88  270/ 10/ 12 1016.0F
ORANGE BCH AL BU 0650   86 88  250/ 12/ 14 1016.2F         1/ 3
$$




USA.gov is the U.S. government's official web portal to all federal, state and local government web resources and services.